Time,TemperatureF,DewpointF,PressureIn,WindDirection,WindDirectionDegrees,WindSpeedMPH,WindSpeedGustMPH,Humidity,HourlyPrecipIn,Conditions,Clouds,dailyrainin,SoftwareType,DateUTC
2013-05-15 00:02:00,88.0,46.0,29.77,SW,220,14.0,21.0,23,-99.99,,,-99.99,,2013-05-15 00:02:00,
2013-05-15 00:21:00,88.0,46.0,29.77,SW,220,10.0,22.0,23,-99.99,,,-99.99,,2013-05-15 00:21:00,
2013-05-15 00:32:00,86.0,46.0,29.77,SW,220,13.0,20.0,25,-99.99,,,-99.99,,2013-05-15 00:32:00,
2013-05-15 00:41:00,86.0,46.0,29.77,SW,220,13.0,25.0,25,-99.99,,,-99.99,,2013-05-15 00:41:00,
2013-05-15 00:52:00,86.0,46.0,29.77,SW,220,13.0,21.0,25,-99.99,,,-99.99,,2013-05-15 00:52:00,
2013-05-15 01:01:00,86.0,46.0,29.77,SW,220,12.0,20.0,25,-99.99,,,-99.99,,2013-05-15 01:01:00,
2013-05-15 01:21:00,84.0,46.0,29.78,SW,220,13.0,18.0,26,-99.99,,,-99.99,,2013-05-15 01:21:00,
2013-05-15 01:31:00,84.0,46.0,29.78,SW,220,13.0,-999.0,26,-99.99,,,-99.99,,2013-05-15 01:31:00,
2013-05-15 01:42:00,84.0,46.0,29.78,SW,220,13.0,-999.0,26,-99.99,,,-99.99,,2013-05-15 01:42:00,
2013-05-15 01:52:00,82.0,46.0,29.78,SW,220,10.0,17.0,28,-99.99,,,-99.99,,2013-05-15 01:52:00,
2013-05-15 02:02:00,82.0,46.0,29.79,SW,220,10.0,-999.0,28,-99.99,,,-99.99,,2013-05-15 02:02:00,
2013-05-15 02:21:00,82.0,46.0,29.79,SW,220,13.0,20.0,28,-99.99,,,-99.99,,2013-05-15 02:21:00,
2013-05-15 02:31:00,82.0,46.0,29.79,SW,220,14.0,20.0,28,-99.99,,,-99.99,,2013-05-15 02:31:00,
2013-05-15 02:42:00,82.0,46.0,29.80,SW,230,15.0,22.0,28,-99.99,,,-99.99,,2013-05-15 02:42:00,
2013-05-15 02:52:00,82.0,46.0,29.80,SW,230,14.0,22.0,28,-99.99,,,-99.99,,2013-05-15 02:52:00,
2013-05-15 03:01:00,82.0,46.0,29.81,SW,220,14.0,22.0,28,-99.99,,,-99.99,,2013-05-15 03:01:00,
2013-05-15 03:22:00,81.0,46.0,29.82,SW,220,12.0,18.0,30,-99.99,,,-99.99,,2013-05-15 03:22:00,
2013-05-15 03:33:00,81.0,46.0,29.82,SW,220,12.0,18.0,30,-99.99,,,-99.99,,2013-05-15 03:33:00,
2013-05-15 03:44:00,81.0,48.0,29.82,SW,220,12.0,20.0,32,-99.99,,,-99.99,,2013-05-15 03:44:00,
2013-05-15 03:54:00,81.0,48.0,29.82,SW,220,14.0,20.0,32,-99.99,,,-99.99,,2013-05-15 03:54:00,
2013-05-15 04:03:00,81.0,48.0,29.82,SW,220,18.0,23.0,32,-99.99,,,-99.99,,2013-05-15 04:03:00,
2013-05-15 04:24:00,81.0,48.0,29.82,SW,220,16.0,23.0,32,-99.99,,,-99.99,,2013-05-15 04:24:00,
2013-05-15 04:33:00,81.0,48.0,29.82,SW,220,16.0,23.0,32,-99.99,,,-99.99,,2013-05-15 04:33:00,
2013-05-15 04:42:00,79.0,48.0,29.82,SW,220,14.0,25.0,34,-99.99,,,-99.99,,2013-05-15 04:42:00,
2013-05-15 04:52:00,79.0,48.0,29.82,SW,220,14.0,-999.0,34,-99.99,,,-99.99,,2013-05-15 04:52:00,
2013-05-15 05:02:00,79.0,48.0,29.82,SW,220,14.0,20.0,34,-99.99,,,-99.99,,2013-05-15 05:02:00,
2013-05-15 05:12:00,79.0,48.0,29.82,SW,220,14.0,20.0,34,-99.99,,,-99.99,,2013-05-15 05:12:00,
2013-05-15 05:22:00,77.0,48.0,29.83,SW,230,14.0,23.0,36,-99.99,,,-99.99,,2013-05-15 05:22:00,
2013-05-15 05:32:00,77.0,48.0,29.83,SW,220,16.0,24.0,36,-99.99,,,-99.99,,2013-05-15 05:32:00,
2013-05-15 05:42:00,77.0,48.0,29.84,SW,230,13.0,24.0,36,-99.99,,,-99.99,,2013-05-15 05:42:00,
2013-05-15 05:52:00,77.0,48.0,29.84,SW,230,13.0,21.0,36,-99.99,,,-99.99,,2013-05-15 05:52:00,
2013-05-15 06:02:00,77.0,48.0,29.84,SW,230,14.0,21.0,36,-99.99,,,-99.99,,2013-05-15 06:02:00,
2013-05-15 06:11:00,77.0,48.0,29.84,SW,230,14.0,21.0,36,-99.99,,,-99.99,,2013-05-15 06:11:00,
2013-05-15 06:21:00,77.0,46.0,29.84,SW,220,14.0,18.0,33,-99.99,,,-99.99,,2013-05-15 06:21:00,
2013-05-15 06:32:00,77.0,46.0,29.84,SW,220,15.0,21.0,33,-99.99,,,-99.99,,2013-05-15 06:32:00,
2013-05-15 06:41:00,77.0,46.0,29.84,SW,220,16.0,22.0,33,-99.99,,,-99.99,,2013-05-15 06:41:00,
2013-05-15 06:52:00,77.0,46.0,29.84,SW,230,14.0,22.0,33,-99.99,,,-99.99,,2013-05-15 06:52:00,
2013-05-15 07:01:00,77.0,46.0,29.85,SW,230,14.0,22.0,33,-99.99,,,-99.99,,2013-05-15 07:01:00,
2013-05-15 07:21:00,77.0,46.0,29.85,SW,230,12.0,22.0,33,-99.99,,,-99.99,,2013-05-15 07:21:00,
2013-05-15 07:32:00,75.0,46.0,29.85,SW,230,12.0,20.0,35,-99.99,,,-99.99,,2013-05-15 07:32:00,
2013-05-15 07:41:00,75.0,46.0,29.85,SW,230,13.0,22.0,35,-99.99,,,-99.99,,2013-05-15 07:41:00,
2013-05-15 07:52:00,75.0,46.0,29.85,SW,230,12.0,18.0,35,-99.99,,,-99.99,,2013-05-15 07:52:00,
2013-05-15 08:02:00,75.0,46.0,29.85,SW,230,13.0,20.0,35,-99.99,,,-99.99,,2013-05-15 08:02:00,
2013-05-15 08:21:00,73.0,46.0,29.86,SW,230,12.0,17.0,38,-99.99,,,-99.99,,2013-05-15 08:21:00,
2013-05-15 08:32:00,73.0,46.0,29.86,SW,230,12.0,17.0,38,-99.99,,,-99.99,,2013-05-15 08:32:00,
2013-05-15 08:42:00,73.0,46.0,29.86,SW,230,12.0,18.0,38,-99.99,,,-99.99,,2013-05-15 08:42:00,
2013-05-15 08:53:00,73.0,48.0,29.86,SW,230,12.0,17.0,40,-99.99,,,-99.99,,2013-05-15 08:53:00,
2013-05-15 09:01:00,73.0,48.0,29.86,SW,230,12.0,18.0,40,-99.99,,,-99.99,,2013-05-15 09:01:00,
2013-05-15 09:11:00,73.0,48.0,29.86,SW,230,12.0,18.0,40,-99.99,,,-99.99,,2013-05-15 09:11:00,
2013-05-15 09:21:00,73.0,48.0,29.87,SW,230,12.0,20.0,40,-99.99,,,-99.99,,2013-05-15 09:21:00,
2013-05-15 09:33:00,72.0,48.0,29.87,SW,230,12.0,16.0,43,-99.99,,,-99.99,,2013-05-15 09:33:00,
2013-05-15 09:42:00,72.0,48.0,29.87,SW,230,12.0,16.0,43,-99.99,,,-99.99,,2013-05-15 09:42:00,
2013-05-15 09:53:00,72.0,48.0,29.87,SW,230,9.0,-999.0,43,-99.99,,,-99.99,,2013-05-15 09:53:00,
2013-05-15 10:02:00,72.0,48.0,29.87,SW,230,10.0,-999.0,43,-99.99,,,-99.99,,2013-05-15 10:02:00,
2013-05-15 10:12:00,72.0,48.0,29.87,SW,230,10.0,-999.0,43,-99.99,,,-99.99,,2013-05-15 10:12:00,
2013-05-15 10:22:00,72.0,50.0,29.88,SW,220,12.0,17.0,46,-99.99,,,-99.99,,2013-05-15 10:22:00,
2013-05-15 10:32:00,72.0,50.0,29.88,SW,220,10.0,17.0,46,-99.99,,,-99.99,,2013-05-15 10:32:00,
2013-05-15 10:42:00,72.0,50.0,29.88,SW,220,9.0,17.0,46,-99.99,,,-99.99,,2013-05-15 10:42:00,
2013-05-15 10:52:00,72.0,50.0,29.88,SW,220,9.0,-999.0,46,-99.99,,,-99.99,,2013-05-15 10:52:00,
2013-05-15 11:08:00,70.0,50.0,29.89,SW,220,9.0,-999.0,49,-99.99,,,-99.99,,2013-05-15 11:08:00,
2013-05-15 11:17:00,70.0,50.0,29.89,SW,220,9.0,-999.0,49,-99.99,,,-99.99,,2013-05-15 11:17:00,
2013-05-15 11:26:00,70.0,50.0,29.89,SW,220,10.0,16.0,49,-99.99,,,-99.99,,2013-05-15 11:26:00,
2013-05-15 11:35:00,70.0,50.0,29.89,SW,220,10.0,-999.0,49,-99.99,,,-99.99,,2013-05-15 11:35:00,
2013-05-15 11:47:00,70.0,50.0,29.89,SW,220,9.0,-999.0,49,-99.99,,,-99.99,,2013-05-15 11:47:00,
2013-05-15 11:59:00,70.0,50.0,29.89,SW,220,9.0,-999.0,49,-99.99,,,-99.99,,2013-05-15 11:59:00,
2013-05-15 12:06:00,72.0,50.0,29.89,SW,220,10.0,-999.0,46,-99.99,,,-99.99,,2013-05-15 12:06:00,
2013-05-15 12:13:00,72.0,50.0,29.89,SW,220,10.0,-999.0,46,-99.99,,,-99.99,,2013-05-15 12:13:00,
2013-05-15 12:46:00,72.0,52.0,29.90,SW,230,10.0,-999.0,49,-99.99,,,-99.99,,2013-05-15 12:46:00,
2013-05-15 12:57:00,73.0,52.0,29.90,SW,230,8.0,-999.0,46,-99.99,,,-99.99,,2013-05-15 12:57:00,
2013-05-15 13:08:00,73.0,52.0,29.90,SW,230,10.0,-999.0,46,-99.99,,,-99.99,,2013-05-15 13:08:00,
2013-05-15 13:24:00,73.0,52.0,29.91,SW,230,10.0,-999.0,46,-99.99,,,-99.99,,2013-05-15 13:24:00,
2013-05-15 13:35:00,73.0,52.0,29.91,SW,230,12.0,18.0,46,-99.99,,,-99.99,,2013-05-15 13:35:00,
2013-05-15 13:46:00,73.0,52.0,29.91,SW,230,10.0,-999.0,46,-99.99,,,-99.99,,2013-05-15 13:46:00,
2013-05-15 13:58:00,73.0,52.0,29.91,SW,230,13.0,23.0,46,-99.99,,,-99.99,,2013-05-15 13:58:00,
2013-05-15 14:05:00,75.0,52.0,29.91,SW,230,15.0,20.0,43,-99.99,,,-99.99,,2013-05-15 14:05:00,
2013-05-15 14:12:00,75.0,52.0,29.91,SW,230,15.0,20.0,43,-99.99,,,-99.99,,2013-05-15 14:12:00,
2013-05-15 14:25:00,75.0,54.0,29.91,WSW,240,10.0,-999.0,46,-99.99,,,-99.99,,2013-05-15 14:25:00,
2013-05-15 14:36:00,75.0,54.0,29.91,WSW,240,13.0,18.0,46,-99.99,,,-99.99,,2013-05-15 14:36:00,
2013-05-15 14:44:00,75.0,54.0,29.91,WSW,240,14.0,20.0,46,-99.99,,,-99.99,,2013-05-15 14:44:00,
2013-05-15 14:59:00,77.0,54.0,29.90,WSW,240,12.0,20.0,44,-99.99,,,-99.99,,2013-05-15 14:59:00,
2013-05-15 15:08:00,77.0,54.0,29.90,WSW,240,13.0,21.0,44,-99.99,,,-99.99,,2013-05-15 15:08:00,
2013-05-15 15:15:00,77.0,54.0,29.90,WSW,240,13.0,21.0,44,-99.99,,,-99.99,,2013-05-15 15:15:00,
2013-05-15 15:27:00,79.0,55.0,29.90,WSW,240,14.0,21.0,44,-99.99,,,-99.99,,2013-05-15 15:27:00,
2013-05-15 15:36:00,79.0,54.0,29.90,WSW,240,16.0,21.0,41,-99.99,,,-99.99,,2013-05-15 15:36:00,
2013-05-15 15:46:00,81.0,55.0,29.90,WSW,250,15.0,-999.0,41,-99.99,,,-99.99,,2013-05-15 15:46:00,
2013-05-15 16:00:00,81.0,54.0,29.89,WSW,240,13.0,-999.0,39,-99.99,,,-99.99,,2013-05-15 16:00:00,
2013-05-15 16:08:00,81.0,54.0,29.89,WSW,240,14.0,20.0,39,-99.99,,,-99.99,,2013-05-15 16:08:00,
2013-05-15 16:27:00,81.0,55.0,29.90,WSW,250,14.0,22.0,41,-99.99,,,-99.99,,2013-05-15 16:27:00,
2013-05-15 16:35:00,81.0,55.0,29.90,WSW,250,17.0,24.0,41,-99.99,,,-99.99,,2013-05-15 16:35:00,
2013-05-15 16:47:00,81.0,55.0,29.90,WSW,250,14.0,24.0,41,-99.99,,,-99.99,,2013-05-15 16:47:00,
2013-05-15 16:59:00,82.0,55.0,29.90,SW,230,10.0,21.0,39,-99.99,,,-99.99,,2013-05-15 16:59:00,
2013-05-15 17:08:00,82.0,55.0,29.90,SW,230,12.0,18.0,39,-99.99,,,-99.99,,2013-05-15 17:08:00,
2013-05-15 17:16:00,82.0,55.0,29.90,SW,230,12.0,18.0,39,-99.99,,,-99.99,,2013-05-15 17:16:00,
2013-05-15 17:26:00,82.0,55.0,29.89,West,270,14.0,18.0,39,-99.99,,,-99.99,,2013-05-15 17:26:00,
2013-05-15 17:45:00,82.0,55.0,29.88,West,260,8.0,-999.0,39,-99.99,,,-99.99,,2013-05-15 17:45:00,
2013-05-15 17:59:00,82.0,55.0,29.89,WSW,240,13.0,17.0,39,-99.99,,,-99.99,,2013-05-15 17:59:00,
2013-05-15 18:04:00,82.0,55.0,29.89,SW,230,12.0,-999.0,39,-99.99,,,-99.99,,2013-05-15 18:04:00,
2013-05-15 18:13:00,82.0,55.0,29.89,SW,230,12.0,-999.0,39,-99.99,,,-99.99,,2013-05-15 18:13:00,
2013-05-15 18:26:00,82.0,57.0,29.88,WSW,250,9.0,16.0,42,-99.99,,,-99.99,,2013-05-15 18:26:00,
2013-05-15 18:35:00,84.0,57.0,29.88,WSW,250,10.0,-999.0,39,-99.99,,,-99.99,,2013-05-15 18:35:00,
2013-05-15 18:46:00,84.0,57.0,29.88,West,260,12.0,-999.0,39,-99.99,,,-99.99,,2013-05-15 18:46:00,
2013-05-15 18:57:00,84.0,57.0,29.87,WSW,240,9.0,-999.0,39,-99.99,,,-99.99,,2013-05-15 18:57:00,
2013-05-15 19:14:00,84.0,57.0,29.87,WSW,240,7.0,-999.0,39,-99.99,,,-99.99,,2013-05-15 19:14:00,
2013-05-15 19:27:00,84.0,57.0,29.87,WSW,250,10.0,-999.0,39,-99.99,,,-99.99,,2013-05-15 19:27:00,
2013-05-15 19:44:00,86.0,57.0,29.87,WSW,240,8.0,-999.0,37,-99.99,,,-99.99,,2013-05-15 19:44:00,
2013-05-15 19:56:00,86.0,57.0,29.86,WSW,250,9.0,-999.0,37,-99.99,,,-99.99,,2013-05-15 19:56:00,
2013-05-15 20:06:00,86.0,57.0,29.86,West,270,10.0,-999.0,37,-99.99,,,-99.99,,2013-05-15 20:06:00,
2013-05-15 20:15:00,86.0,57.0,29.86,West,270,10.0,-999.0,37,-99.99,,,-99.99,,2013-05-15 20:15:00,
2013-05-15 20:26:00,86.0,57.0,29.86,West,270,6.0,-999.0,37,-99.99,,,-99.99,,2013-05-15 20:26:00,
2013-05-15 20:36:00,86.0,57.0,29.86,WSW,250,8.0,-999.0,37,-99.99,,,-99.99,,2013-05-15 20:36:00,
2013-05-15 20:45:00,86.0,57.0,29.86,West,260,8.0,16.0,37,-99.99,,,-99.99,,2013-05-15 20:45:00,
2013-05-15 20:57:00,86.0,59.0,29.86,West,280,6.0,-999.0,40,-99.99,,,-99.99,,2013-05-15 20:57:00,
2013-05-15 21:07:00,86.0,57.0,29.85,West,280,7.0,-999.0,37,-99.99,,,-99.99,,2013-05-15 21:07:00,
2013-05-15 21:18:00,86.0,57.0,29.85,West,280,7.0,-999.0,37,-99.99,,,-99.99,,2013-05-15 21:18:00,
2013-05-15 21:26:00,88.0,59.0,29.85,West,280,6.0,-999.0,37,-99.99,,,-99.99,,2013-05-15 21:26:00,
2013-05-15 21:47:00,88.0,57.0,29.84,WNW,290,6.0,-999.0,35,-99.99,,,-99.99,,2013-05-15 21:47:00,
2013-05-15 22:00:00,88.0,57.0,29.84,West,280,5.0,-999.0,35,-99.99,,,-99.99,,2013-05-15 22:00:00,
2013-05-15 22:08:00,88.0,57.0,29.83,WSW,250,3.0,-999.0,35,-99.99,,,-99.99,,2013-05-15 22:08:00,
2013-05-15 22:16:00,88.0,57.0,29.83,WSW,250,3.0,-999.0,35,-99.99,,,-99.99,,2013-05-15 22:16:00,
2013-05-15 22:27:00,86.0,57.0,29.83,WSW,250,5.0,-999.0,37,-99.99,,,-99.99,,2013-05-15 22:27:00,
2013-05-15 22:47:00,88.0,59.0,29.83,WSW,250,8.0,-999.0,37,-99.99,,,-99.99,,2013-05-15 22:47:00,
2013-05-15 22:59:00,86.0,57.0,29.83,West,270,5.0,-999.0,37,-99.99,,,-99.99,,2013-05-15 22:59:00,
2013-05-15 23:07:00,88.0,57.0,29.82,WSW,240,7.0,-999.0,35,-99.99,,,-99.99,,2013-05-15 23:07:00,
2013-05-15 23:14:00,88.0,57.0,29.82,WSW,240,7.0,-999.0,35,-99.99,,,-99.99,,2013-05-15 23:14:00,
2013-05-15 23:27:00,86.0,57.0,29.82,WNW,290,6.0,-999.0,37,-99.99,,,-99.99,,2013-05-15 23:27:00,
2013-05-15 23:38:00,86.0,57.0,29.82,WSW,250,5.0,-999.0,37,-99.99,,,-99.99,,2013-05-15 23:38:00,
2013-05-15 23:46:00,86.0,59.0,29.82,WSW,250,3.0,-999.0,40,-99.99,,,-99.99,,2013-05-15 23:46:00,